Temp
65 64 64 64 65 66 66 65 64 64 63 66 66 66 65 65 64 59 53 59 63 72 70 62 62 63 62 58 59 55 48 44 47 50 50 56 54 59 60 55 57 56 56 59 61
65 65 65 65 65 65 64 64 62 61 61 65 65 65 65 64 58 56 64 73 73 72 61 59 59 60 57 54 55 51 45 49 50 50 50 54 53 53 55 54 54 54 58 58 59
65 65 65 65 65 64 63 62 60 60 62 65 65 65 64 62 55 50 71 73 74 71 62 61 60 59 53 53 51 49 47 52 51 53 54 53 52 52 49 51 55 54 54 57 56
65 65 65 64 62 61 62 62 60 61 64 65 65 65 65 58 45 56 71 71 72 66 62 60 58 53 50 48 51 50 52 53 53 53 53 50 52 51 51 53 56 55 56 55 57
63 64 64 61 61 62 62 63 64 65 65 65 65 65 59 50 48 63 68 65 65 63 59 59 55 52 50 49 50 48 49 52 52 52 50 52 48 49 50 55 56 57 56 55 55
63 63 63 63 64 64 63 64 65 65 65 65 65 64 54 44 60 61 60 62 62 61 56 58 56 55 52 48 49 47 50 49 51 51 50 48 47 49 52 53 54 56 55 55 55
64 63 63 63 64 64 65 65 65 65 65 66 65 63 53 50 59 60 63 58 59 59 57 56 57 56 51 48 50 50 46 46 49 49 48 47 46 46 51 53 53 53 54 54 55
63 63 63 63 63 63 64 64 64 64 64 65 65 58 48 63 60 61 61 60 61 61 60 58 58 55 51 49 50 45 44 40 46 50 49 50 44 50 51 48 52 53 54 55 54
62 62 63 63 63 63 63 64 64 64 65 65 57 55 47 66 59 59 59 58 58 60 60 64 56 49 49 43 40 41 36 37 43 49 47 45 44 50 52 50 50 51 51 52 53
60 61 61 62 62 62 62 63 64 63 63 64 62 51 55 52 57 59 59 60 58 56 56 54 46 42 40 39 35 36 33 36 38 44 45 42 44 47 50 48 47 47 48 49 51
60 60 60 61 61 61 60 57 53 51 53 48 48 50 53 59 60 57 59 58 57 52 44 45 36 31 35 38 40 42 38 36 40 44 42 39 40 46 49 47 45 41 43 45 48
59 59 60 61 62 61 57 51 48 52 47 54 54 54 56 56 53 55 60 53 51 42 45 41 33 40 45 45 43 41 34 35 41 43 40 39 40 44 48 46 43 44 44 46 47
59 59 61 61 61 57 53 51 54 53 46 51 53 53 53 56 49 51 55 51 47 42 40 36 39 46 45 42 41 37 33 34 34 40 38 37 38 42 46 47 47 47 45 45 46
59 59 60 60 57 53 51 55 54 52 34 43 49 53 56 54 49 56 55 51 47 41 40 39 44 44 42 41 40 35 40 39 37 32 27 36 29 37 41 42 44 41 43 43 44
58 59 59 59 52 52 52 54 53 52 22 46 49 60 56 51 50 53 56 52 43 42 41 36 39 40 41 40 42 37 41 38 35 30 28 30 24 35 39 39 41 39 41 43 45
57 58 59 54 50 49 52 52 51 34 22 37 48 48 48 50 50 52 52 54 50 44 43 39 45 42 41 44 43 43 37 34 31 28 19 28 25 28 35 40 41 41 43 46 45
57 58 56 55 49 51 50 47 32 25 41 38 40 46 45 44 46 47 45 41 38 31 26 37 38 42 44 39 41 38 29 20 21 18 22 29 24 32 40 43 45 45 46 45 44
56 56 54 53 49 50 48 41 27 36 35 43 42 43 40 43 42 44 41 37 40 37 28 28 27 37 42 38 35 34 32 21 22 19 21 30 24 32 42 43 46 46 46 47 47
57 49 48 50 51 49 44 28 30 35 41 41 41 37 36 41 41 40 36 36 37 37 32 31 31 40 43 42 40 33 28 34 25 20 21 24 32 39 42 42 44 45 46 46 47
47 46 47 51 49 46 37 34 34 41 43 42 35 37 32 35 36 36 35 38 39 41 38 34 29 36 40 41 40 36 39 28 24 23 21 22 26 28 34 39 43 44 44 45 45
47 46 51 49 48 42 29 30 38 45 45 41 37 36 36 35 36 34 35 39 41 40 39 35 33 31 36 33 33 34 31 30 30 27 24 23 26 36 35 40 41 43 45 45 43
44 41 51 50 39 32 32 38 46 42 45 43 42 40 36 36 34 33 35 37 42 42 36 36 32 24 32 35 38 35 34 32 25 26 24 24 26 40 40 42 43 43 44 42 42
43 43 50 50 33 31 36 40 42 42 42 42 39 41 40 37 32 35 36 42 43 41 37 38 31 20 29 32 34 32 35 34 32 29 25 22 30 41 34 38 41 41 42 43 42
43 39 43 41 38 37 35 36 37 42 41 43 40 41 38 34 37 33 34 40 42 41 48 44 31 30 25 31 33 31 33 34 33 23 26 27 31 34 38 39 41 41 41 42 41
41 38 38 35 39 37 37 39 36 36 40 41 37 38 36 31 32 32 35 36 39 45 38 38 29 26 31 33 34 34 35 33 28 32 30 30 32 38 41 40 42 42 42 43 41
41 40 39 38 39 38 38 36 38 39 39 37 36 39 38 35 37 34 37 35 36 35 36 36 31 30 29 34 32 31 34 35 36 36 33 37 37 48 47 41 41 42 42 42 41
41 42 41 41 38 37 38 38 40 41 42 44 42 39 38 41 42 40 42 41 39 38 35 34 31 29 27 30 31 30 34 35 32 34 37 31 40 40 38 41 41 40 42 42 42
MSLP
1011.57 1011.58 1011.72 1012.11 1012.13 1012.31 1012.66 1013.27 1013.47 1013.47 1013.91 1014.01 1014.52 1014.70 1015.46 1015.32 1015.00 1015.38 1015.57 1015.03 1014.65 1014.40 1014.16 1014.12 1013.67 1013.56 1013.80 1014.27 1014.54 1015.03 1016.10 1017.09 1016.70 1016.50 1015.95 1015.69 1015.73 1015.72 1015.74 1015.72 1015.81 1016.07 1016.42 1016.68 1016.63
1012.01 1011.88 1011.86 1012.04 1012.26 1012.54 1013.03 1013.66 1014.09 1014.48 1014.40 1014.67 1014.82 1015.04 1015.60 1015.27 1014.89 1015.11 1015.22 1014.52 1014.28 1014.25 1014.17 1014.03 1013.84 1013.72 1014.40 1014.71 1015.07 1015.57 1016.62 1016.89 1016.74 1016.50 1016.33 1016.14 1016.24 1016.40 1016.33 1016.28 1016.25 1016.40 1016.68 1016.94 1017.08
1012.44 1012.06 1012.12 1012.37 1012.35 1013.02 1013.45 1013.48 1013.60 1014.87 1015.13 1014.97 1014.94 1015.19 1015.58 1015.22 1014.77 1015.09 1014.81 1014.43 1014.10 1014.10 1014.16 1014.10 1013.94 1013.98 1014.66 1015.05 1015.45 1016.05 1016.67 1016.87 1017.00 1016.85 1016.78 1016.77 1016.85 1016.87 1016.81 1016.66 1016.46 1016.57 1016.91 1017.36 1017.52
1012.91 1012.43 1012.66 1012.79 1013.16 1013.41 1013.82 1014.11 1014.55 1015.45 1015.34 1015.24 1015.09 1015.22 1015.50 1015.24 1015.26 1014.89 1014.63 1014.41 1014.00 1013.98 1014.08 1013.97 1014.07 1014.39 1015.04 1015.57 1015.71 1016.51 1016.96 1016.98 1017.22 1017.16 1017.11 1017.33 1017.46 1017.29 1017.16 1016.50 1016.39 1016.59 1016.92 1017.42 1017.73
1014.10 1013.68 1013.54 1013.50 1013.37 1014.01 1014.26 1014.11 1013.97 1015.01 1015.18 1015.25 1014.88 1015.25 1015.55 1015.35 1015.16 1014.52 1014.60 1014.26 1013.91 1013.94 1014.06 1014.01 1014.30 1014.78 1015.47 1015.96 1016.20 1016.73 1017.21 1017.34 1017.50 1017.47 1017.48 1017.58 1017.78 1017.92 1017.19 1016.74 1016.83 1016.97 1017.21 1017.57 1017.79
1014.93 1014.53 1014.24 1014.21 1013.97 1014.06 1014.60 1014.68 1014.50 1014.90 1014.96 1014.81 1015.12 1015.13 1015.45 1015.45 1014.85 1014.59 1014.69 1014.19 1014.24 1014.07 1014.27 1014.19 1014.46 1014.97 1015.80 1016.47 1016.66 1017.22 1017.48 1017.73 1017.69 1017.75 1017.72 1017.81 1017.91 1018.07 1017.17 1016.90 1016.76 1017.08 1017.29 1017.55 1017.66
1015.39 1015.22 1014.94 1014.84 1014.79 1014.57 1014.79 1014.75 1014.82 1014.78 1014.71 1014.94 1015.06 1015.04 1015.41 1015.37 1014.83 1014.64 1014.42 1014.45 1014.51 1014.28 1014.46 1014.68 1014.68 1015.21 1016.14 1016.96 1017.23 1017.47 1017.75 1017.89 1018.06 1018.12 1018.17 1018.18 1017.89 1017.93 1017.27 1017.09 1017.06 1017.17 1017.32 1017.48 1017.50
1015.57 1015.69 1015.51 1015.21 1015.23 1015.05 1014.80 1014.71 1014.64 1014.71 1014.90 1014.87 1014.85 1015.09 1015.46 1014.89 1014.70 1014.62 1014.51 1014.55 1014.59 1014.45 1014.61 1014.99 1015.10 1015.78 1016.87 1017.54 1017.81 1018.12 1018.16 1018.64 1018.50 1018.41 1018.46 1018.43 1018.01 1017.39 1017.42 1017.49 1017.65 1017.55 1017.64 1017.64 1017.68
1015.98 1015.81 1015.64 1015.60 1015.20 1015.03 1015.01 1014.60 1014.55 1014.61 1014.71 1014.68 1014.93 1015.09 1015.54 1014.83 1014.89 1015.06 1014.85 1015.13 1014.96 1014.84 1014.99 1015.18 1015.78 1017.34 1017.83 1018.46 1019.27 1019.29 1019.09 1019.09 1018.92 1018.90 1018.96 1018.95 1018.42 1017.65 1017.59 1017.85 1017.88 1017.66 1017.74 1017.85 1017.80
1015.61 1015.49 1015.31 1015.16 1014.99 1014.91 1014.75 1014.68 1014.59 1014.41 1014.61 1014.66 1014.98 1015.52 1015.66 1015.79 1015.50 1015.41 1015.12 1015.25 1015.24 1015.35 1015.75 1016.40 1017.53 1018.56 1019.48 1019.45 1019.82 1019.76 1019.62 1019.50 1019.62 1019.87 1019.63 1019.60 1018.54 1018.38 1017.96 1017.99 1017.81 1017.74 1017.77 1018.13 1017.86
1015.99 1015.64 1015.43 1015.32 1015.32 1015.04 1014.82 1014.98 1015.49 1015.78 1015.90 1016.43 1016.51 1016.32 1016.16 1015.98 1015.59 1015.78 1015.78 1015.60 1015.65 1016.44 1017.61 1018.25 1019.19 1019.99 1020.47 1020.04 1019.70 1019.69 1019.92 1020.11 1020.20 1020.62 1020.50 1020.13 1019.56 1018.67 1018.02 1017.90 1017.87 1017.73 1017.97 1018.11 1018.07
1016.26 1015.85 1015.66 1015.52 1015.49 1015.43 1015.56 1016.39 1017.11 1017.27 1017.27 1016.90 1016.68 1016.47 1016.36 1016.29 1016.10 1016.22 1015.83 1016.38 1016.84 1018.12 1018.61 1019.32 1020.39 1020.81 1020.63 1020.26 1020.21 1020.33 1020.63 1020.86 1020.95 1021.19 1021.43 1020.81 1019.78 1018.82 1018.20 1018.07 1018.09 1017.97 1018.16 1018.30 1018.43
1016.61 1016.13 1015.87 1015.89 1015.79 1015.97 1016.46 1017.20 1017.34 1017.25 1017.41 1017.48 1017.12 1016.85 1016.83 1016.62 1017.16 1017.16 1016.89 1017.26 1018.06 1019.05 1019.87 1020.39 1021.24 1020.89 1020.74 1020.73 1020.90 1021.39 1021.58 1021.93 1022.51 1022.23 1022.17 1021.76 1020.28 1019.21 1018.38 1018.15 1018.12 1018.21 1018.42 1018.62 1018.93
1016.83 1016.43 1016.12 1015.88 1016.21 1016.61 1017.17 1017.49 1017.39 1017.47 1018.12 1018.53 1017.41 1017.08 1016.92 1016.83 1017.58 1017.53 1017.50 1017.87 1018.76 1019.96 1020.64 1021.36 1021.30 1021.10 1021.12 1021.43 1021.53 1022.11 1022.49 1022.89 1023.39 1023.77 1023.89 1023.23 1022.30 1019.93 1018.92 1018.56 1018.57 1018.76 1018.89 1018.91 1019.00
1016.77 1016.48 1016.10 1015.64 1016.59 1017.10 1017.82 1017.53 1017.45 1017.53 1018.80 1019.10 1017.84 1016.87 1017.00 1017.46 1017.96 1017.89 1017.81 1017.96 1019.36 1020.47 1021.11 1022.07 1021.70 1021.52 1021.55 1021.95 1021.98 1022.82 1023.27 1023.85 1024.46 1025.05 1025.47 1024.60 1024.03 1020.36 1019.59 1018.99 1018.68 1018.83 1019.06 1019.10 1019.09
1016.99 1016.56 1016.29 1016.54 1017.14 1017.66 1017.62 1017.58 1017.83 1018.52 1019.83 1019.34 1018.37 1017.69 1017.70 1017.92 1018.20 1018.22 1018.21 1018.51 1019.71 1020.67 1021.37 1022.09 1021.87 1021.88 1021.97 1022.27 1022.64 1023.27 1024.02 1024.92 1025.64 1026.35 1026.62 1025.21 1024.61 1021.29 1020.09 1018.91 1018.80 1019.02 1019.13 1019.28 1019.22
1017.26 1016.90 1016.70 1017.13 1017.75 1017.64 1017.66 1018.17 1019.12 1019.42 1020.55 1019.91 1019.02 1018.46 1018.50 1018.88 1018.84 1018.86 1019.35 1019.95 1020.75 1021.54 1022.69 1022.53 1022.45 1022.27 1022.28 1022.77 1023.22 1023.76 1024.83 1026.19 1027.23 1027.33 1026.94 1025.64 1024.79 1020.90 1019.67 1018.90 1018.73 1019.04 1019.11 1019.14 1019.23
1017.47 1017.25 1017.49 1017.67 1017.76 1017.67 1017.83 1018.55 1019.75 1020.71 1020.28 1019.68 1019.23 1018.98 1019.26 1019.36 1019.48 1019.58 1020.13 1021.01 1021.28 1021.71 1022.92 1023.05 1023.08 1022.75 1022.76 1022.95 1023.48 1024.26 1025.21 1026.44 1027.29 1027.37 1026.82 1025.57 1023.69 1020.52 1019.64 1019.08 1018.75 1018.81 1019.01 1019.19 1019.26
1017.42 1017.89 1018.02 1017.79 1017.64 1017.78 1018.25 1020.11 1021.16 1020.70 1020.08 1019.68 1019.40 1019.41 1019.61 1019.50 1019.52 1019.86 1020.64 1021.29 1021.57 1021.78 1022.39 1022.85 1023.02 1022.95 1022.99 1023.20 1023.68 1024.65 1025.39 1025.88 1026.66 1027.35 1026.92 1024.60 1022.57 1020.59 1019.72 1019.46 1019.23 1019.12 1019.10 1019.06 1019.03
1018.02 1018.52 1018.59 1018.01 1017.79 1018.04 1018.97 1021.19 1021.38 1020.84 1020.30 1019.83 1019.69 1019.61 1019.77 1019.81 1019.99 1020.34 1020.90 1021.29 1021.53 1021.75 1021.99 1022.77 1023.20 1023.40 1023.45 1023.53 1023.98 1024.30 1025.03 1025.86 1026.56 1027.08 1026.55 1024.27 1022.76 1020.58 1020.03 1019.64 1019.39 1019.22 1019.09 1018.98 1018.96
1018.11 1018.73 1018.41 1018.06 1018.10 1018.91 1021.17 1021.73 1021.23 1020.72 1020.34 1020.05 1019.95 1019.99 1020.12 1020.23 1020.43 1020.79 1021.19 1021.50 1021.46 1021.84 1022.09 1022.71 1023.44 1024.23 1023.99 1023.91 1023.92 1024.65 1024.93 1025.63 1026.24 1026.41 1026.16 1024.83 1021.67 1019.29 1019.10 1019.03 1019.09 1018.97 1019.06 1018.99 1019.14
1018.52 1019.34 1018.33 1017.97 1019.15 1021.21 1022.03 1021.67 1021.16 1020.87 1020.39 1020.15 1020.07 1020.12 1020.27 1020.45 1020.72 1021.04 1021.29 1021.46 1021.60 1021.86 1022.50 1023.03 1023.85 1024.40 1024.03 1023.80 1023.82 1024.02 1024.33 1024.91 1026.02 1026.09 1025.87 1024.93 1020.99 1018.94 1018.70 1018.72 1018.81 1018.97 1019.00 1019.08 1019.27
1019.71 1019.74 1018.51 1018.34 1020.86 1022.21 1021.91 1021.69 1021.43 1021.10 1020.97 1020.67 1020.56 1020.54 1020.56 1020.80 1021.26 1021.36 1021.55 1021.79 1021.88 1022.22 1022.69 1023.21 1024.15 1024.52 1024.42 1024.46 1024.04 1024.06 1023.91 1024.26 1024.95 1025.24 1024.93 1024.26 1020.41 1018.98 1018.76 1018.94 1018.95 1019.12 1019.12 1019.25 1019.37
1020.28 1020.80 1020.41 1020.69 1022.20 1022.27 1022.36 1022.02 1021.53 1021.16 1021.05 1020.97 1020.99 1020.89 1020.94 1021.13 1021.31 1021.53 1021.77 1022.01 1022.18 1022.45 1022.81 1023.33 1024.33 1024.62 1024.31 1023.72 1023.50 1023.85 1023.55 1023.76 1024.14 1024.67 1023.79 1021.86 1019.98 1019.12 1018.94 1018.99 1018.92 1018.94 1019.05 1019.24 1019.44
1021.62 1022.72 1022.45 1022.77 1022.58 1022.47 1022.12 1022.00 1021.91 1021.62 1021.42 1021.21 1021.21 1021.32 1021.45 1021.69 1021.84 1022.02 1022.18 1022.48 1022.70 1022.92 1023.39 1024.04 1024.69 1024.75 1024.13 1023.75 1023.56 1023.12 1022.95 1023.19 1023.45 1022.75 1022.48 1020.36 1019.66 1018.41 1018.32 1018.47 1018.24 1018.48 1018.89 1019.14 1019.39
1022.79 1023.19 1023.21 1023.01 1022.66 1022.34 1022.48 1022.12 1021.70 1021.52 1021.55 1021.63 1021.75 1021.54 1021.59 1021.77 1021.74 1021.84 1022.18 1022.64 1022.83 1023.56 1023.97 1024.53 1024.72 1024.81 1024.20 1023.32 1023.16 1022.58 1021.77 1021.83 1021.96 1021.86 1021.23 1020.03 1018.81 1017.73 1017.27 1017.72 1018.22 1018.56 1018.94 1019.19 1019.38
1023.54 1023.62 1023.49 1023.47 1022.95 1022.34 1022.03 1021.88 1021.82 1021.75 1021.48 1021.28 1021.39 1021.64 1021.80 1021.71 1021.70 1021.78 1021.97 1022.21 1022.45 1023.02 1023.97 1024.54 1024.97 1025.21 1024.42 1023.54 1022.72 1021.41 1019.51 1019.76 1020.05 1019.82 1019.74 1019.51 1017.31 1017.15 1017.34 1017.61 1017.73 1018.42 1018.68 1018.87 1019.26
Wind_Speed
6 9 10 9 10 9 11 9 7 12 5 10 9 7 7 5 3 2 2 4 5 10 7 6 0 1 3 3 3 3 6 2 4 6 2 1 1 2 3 1 2 1 2 4 5
7 7 9 10 9 10 10 12 15 9 3 7 7 7 6 5 4 5 5 8 7 5 3 2 3 3 4 2 3 5 5 6 2 2 3 1 1 3 4 3 2 2 3 4 5
10 5 8 7 8 19 19 18 18 12 8 7 7 8 5 4 4 1 6 11 6 2 1 2 1 2 4 2 3 2 4 5 1 1 2 1 0 3 0 4 7 5 4 4 3
13 11 16 20 26 18 17 23 17 10 9 8 8 6 6 3 7 3 12 14 9 1 1 2 2 3 4 3 3 6 3 2 4 1 1 0 4 6 5 5 2 1 3 4 7
19 16 19 22 20 19 15 13 19 10 7 6 5 2 3 4 1 3 14 10 3 2 2 3 3 3 6 4 3 5 2 3 2 3 2 2 3 5 8 10 6 3 4 7 6
15 13 14 13 13 14 17 12 13 8 6 1 1 3 2 4 5 5 7 4 4 2 2 3 4 3 6 4 4 2 4 3 2 2 3 2 1 4 2 5 2 6 8 7 7
13 11 10 10 8 10 8 8 8 5 4 2 4 3 6 4 2 6 6 3 3 1 3 2 4 5 4 4 2 5 4 2 5 2 2 1 1 6 5 5 3 1 4 7 9
11 7 8 7 6 8 7 6 7 4 2 4 6 3 2 4 3 5 6 3 5 4 5 3 5 8 5 3 7 4 6 2 3 5 3 3 8 3 5 3 6 8 6 6 5
9 8 6 6 7 9 5 6 5 3 4 4 2 4 1 6 5 4 4 3 3 4 6 4 6 5 6 5 5 7 2 1 2 4 4 3 7 4 6 8 9 8 7 6 6
13 11 9 8 9 9 6 3 6 6 4 1 3 4 5 3 4 4 4 4 6 3 5 9 7 5 5 5 5 4 3 2 3 5 5 4 16 6 8 7 9 8 7 7 8
13 11 9 6 7 9 5 4 6 8 10 4 2 4 1 6 2 7 5 4 4 9 4 5 9 3 2 2 3 5 3 0 2 3 5 4 9 12 10 4 8 3 4 2 4
13 11 6 6 7 6 4 5 3 3 6 5 3 4 2 2 5 10 6 5 6 4 3 8 4 1 2 3 4 4 2 2 4 2 3 6 13 7 4 3 4 4 5 5 4
12 10 6 5 3 5 5 4 2 1 5 5 3 4 4 5 4 8 5 2 6 6 5 7 1 2 2 5 4 4 2 1 2 7 1 7 8 5 1 3 6 7 4 4 3
11 9 6 6 3 1 4 3 3 1 7 11 8 6 4 2 6 2 3 3 7 5 3 6 2 2 4 4 2 1 2 2 2 5 3 5 7 5 3 2 4 6 4 3 2
13 11 7 8 4 4 1 4 2 3 8 7 7 3 4 6 2 9 3 6 5 4 4 1 2 4 5 2 2 2 2 2 2 4 5 1 4 8 3 3 2 3 2 1 2
11 12 2 5 4 1 2 3 3 9 1 6 4 4 4 6 3 3 5 7 4 5 7 3 0 3 2 3 3 3 4 7 5 3 4 2 6 7 4 4 3 2 3 2 3
10 8 5 1 1 3 2 4 8 8 3 4 2 4 4 5 5 4 5 6 3 6 4 4 2 2 1 2 1 6 7 5 7 5 7 2 3 10 4 3 6 8 6 3 2
10 5 4 1 3 1 3 7 10 2 2 1 1 2 4 3 3 3 3 3 5 5 4 4 6 1 2 2 2 3 5 7 6 2 6 3 7 8 5 1 5 5 6 5 5
4 4 3 4 3 2 6 8 6 4 1 3 1 4 3 2 3 5 3 2 0 2 4 3 2 2 3 2 3 2 2 2 5 2 3 4 8 7 4 4 4 7 6 7 5
3 3 3 7 3 5 8 3 1 2 2 0 2 1 2 1 3 3 1 1 1 1 2 3 2 1 1 2 2 2 4 3 3 1 5 6 6 7 6 8 7 7 7 6 2
5 4 3 5 3 7 5 2 1 1 1 2 2 2 2 3 3 1 3 2 1 1 2 3 3 2 3 4 6 2 2 2 2 4 4 3 9 7 9 9 10 9 7 6 2
3 5 4 3 7 2 3 3 2 2 4 3 3 3 1 1 1 2 4 2 1 3 3 1 4 4 6 1 3 3 5 6 6 4 2 2 11 2 5 8 7 7 7 3 0
4 1 3 5 5 4 1 3 3 4 4 4 2 2 1 3 1 3 3 1 1 3 5 4 1 3 8 5 2 4 5 4 3 3 7 6 8 3 1 4 5 8 7 4 2
4 4 6 6 2 5 3 3 2 2 2 3 2 3 3 2 3 2 2 1 2 2 5 4 3 6 8 4 4 4 5 6 6 4 4 9 8 3 5 8 7 7 7 6 3
5 0 2 2 4 4 3 1 2 2 2 1 2 1 1 1 1 2 1 1 1 1 2 4 3 3 6 8 5 6 7 8 10 7 8 1 11 5 8 11 12 8 6 5 2
3 2 2 1 2 4 5 3 1 1 2 1 1 1 4 5 7 4 6 5 5 1 4 1 3 1 5 3 4 7 12 14 16 13 12 17 25 15 12 5 5 7 7 4 3
3 3 2 4 2 2 5 2 2 3 2 2 5 1 3 6 4 3 4 2 4 8 7 5 3 2 6 5 7 8 8 9 5 5 9 10 11 3 1 6 8 7 7 6 5
Wind_Direction
131 132 141 167 179 192 181 181 175 134 152 153 164 162 210 196 118 111 240 256 292 297 325 276 291 127 58 69 54 111 65 126 164 163 175 315 129 8 317 327 0 27 131 313 131
63 106 139 156 175 165 160 124 85 50 185 152 145 161 208 201 120 82 260 310 296 292 343 28 110 88 47 58 26 77 92 181 194 163 176 130 96 335 358 355 269 295 34 61 97
36 151 138 110 124 99 96 98 79 14 263 137 142 139 186 228 101 253 309 329 312 270 199 354 70 77 73 39 26 75 138 162 162 101 8 2 325 326 227 272 228 211 189 170 159
54 86 95 93 96 108 118 121 117 208 188 175 142 150 238 256 142 255 331 329 316 268 216 140 91 74 90 97 40 90 41 116 167 54 80 191 327 310 195 232 335 252 172 174 191
44 52 96 114 114 129 121 122 123 161 156 185 132 213 228 37 84 286 329 326 315 161 60 108 79 114 110 107 73 82 136 65 89 84 83 9 281 273 272 270 262 321 149 197 208
60 44 48 70 106 117 140 157 127 152 140 146 282 177 239 79 270 327 321 352 15 75 44 50 139 151 92 68 75 97 86 101 53 17 43 22 257 22 254 330 255 222 230 220 216
53 66 49 40 53 93 115 130 129 105 91 14 337 114 70 184 308 332 18 21 343 44 93 29 115 72 118 95 146 133 74 28 26 9 18 293 237 223 272 341 315 303 241 232 241
21 38 58 36 63 82 77 93 76 51 3 354 330 78 83 289 281 24 358 31 18 37 83 66 90 100 62 113 29 56 53 55 346 356 357 18 272 311 21 60 292 288 278 255 263
23 19 33 62 50 56 43 65 60 335 267 348 77 93 6 319 32 326 41 30 332 36 41 74 64 77 35 81 31 10 161 206 314 26 335 58 266 265 332 325 273 264 261 282 299
5 3 16 28 33 1 1 356 346 38 11 62 63 58 3 340 326 340 356 30 60 31 31 41 47 68 34 63 202 189 147 247 265 345 2 287 273 294 291 289 279 266 265 297 276
5 355 358 357 11 11 25 18 24 3 34 63 287 102 21 311 356 3 6 3 43 49 57 13 65 76 104 41 115 107 103 245 294 22 337 266 287 300 302 333 349 326 247 244 67
7 355 354 28 16 18 52 70 70 164 70 22 44 55 48 301 51 354 8 67 55 68 356 26 77 212 299 43 78 58 89 320 290 2 6 342 295 281 310 4 339 73 108 113 81
4 7 25 344 340 37 79 85 27 58 89 6 9 37 327 40 65 344 24 59 81 57 17 115 140 338 51 42 75 37 69 47 256 323 49 319 316 348 356 63 39 38 62 75 149
357 4 358 307 59 291 52 6 23 32 78 333 349 2 1 46 49 341 17 83 39 125 89 80 324 74 71 73 57 80 41 73 21 35 277 34 278 301 325 102 49 28 46 71 108
353 360 42 53 141 57 309 342 7 55 67 307 323 284 357 75 164 354 347 33 76 85 91 251 43 55 68 39 15 138 62 64 72 67 37 318 73 268 308 192 156 88 94 72 61
357 354 97 28 48 3 330 20 49 45 282 341 316 359 43 18 37 340 42 47 128 76 37 79 314 53 100 67 71 134 75 44 51 68 15 232 126 278 207 199 151 158 189 131 75
349 10 55 44 150 305 37 58 40 86 260 322 9 22 69 12 37 46 37 24 69 65 358 22 5 357 80 112 54 65 51 339 353 12 221 246 41 243 264 257 180 173 183 140 143
343 29 24 64 316 320 69 52 69 185 198 221 8 66 84 4 32 47 75 62 35 76 100 126 326 39 9 84 166 80 133 154 231 238 273 340 241 258 219 102 144 165 163 190 171
33 360 18 323 346 57 73 51 182 218 231 135 77 82 27 38 101 72 64 121 92 58 124 123 293 5 48 35 93 140 187 164 101 357 34 233 280 293 194 165 167 179 185 196 187
79 48 324 322 3 56 70 130 139 251 327 356 95 57 115 22 66 80 208 251 160 127 135 177 45 31 21 66 30 170 159 66 2 200 270 286 275 240 210 199 194 203 200 206 176
63 48 268 335 60 49 93 174 176 287 356 52 134 105 115 150 134 153 179 324 168 162 75 120 109 293 42 200 182 136 230 87 130 161 198 294 268 212 204 191 189 209 200 194 157
90 45 309 41 49 37 66 4 319 16 13 43 77 66 103 74 88 156 207 225 279 160 163 173 141 210 211 288 203 198 208 159 131 225 230 156 272 305 216 191 188 205 198 189 48
83 263 324 82 67 12 331 61 66 30 23 14 71 47 125 152 164 170 187 163 185 146 165 185 355 9 342 356 347 231 206 169 117 80 207 152 261 0 159 203 226 202 206 204 257
69 35 339 44 122 108 33 9 51 39 53 26 27 33 45 32 22 219 233 318 37 89 99 85 162 192 195 209 135 218 208 192 162 150 201 227 277 227 224 224 240 213 207 206 221
28 356 196 355 357 63 64 78 15 342 6 42 38 183 156 211 332 261 204 3 23 83 95 120 240 174 266 248 251 243 222 195 205 205 198 225 237 234 225 219 219 210 196 197 168
71 78 20 149 220 85 5 20 175 256 168 286 254 236 186 193 193 214 166 189 207 108 167 133 257 141 284 326 225 263 247 233 235 234 258 265 278 282 259 206 201 210 187 185 191
351 351 65 330 353 103 181 151 330 350 260 239 196 160 239 244 213 244 215 172 178 163 184 164 158 61 272 348 319 293 247 204 190 203 209 223 250 256 284 221 218 188 188 181 206